[Iaude] MPEC V83: 2023 VL2 [a=1.14,e=0.22,i=2.4,H=28.2]
    mpec at marsden.cfa.harvard.edu 
    mpec at marsden.cfa.harvard.edu
       
    Tue Nov  7 00:28:13 EST 2023
    
    
  
M.P.E.C. 2023-V83                              Issued 2023 November 7, 05:26 UT
     The Minor Planet Electronic Circulars contain information on unusual
         minor planets, routine data on comets and natural satellites,
         and occasional editorial announcements.  They are published
    on behalf of Division F of the International Astronomical Union by the
          Minor Planet Center, Smithsonian Astrophysical Observatory,
                          Cambridge, MA 02138, U.S.A.
			  
             Prepared using the Tamkin Foundation Computer Network
                              MPC at CFA.HARVARD.EDU
            URL https://www.minorplanetcenter.net/    ISSN 1523-6714
                                    2023 VL2                                    
Observations:
     K23V02L*1C2023 11 05.37492203 41 12.023+10 44 37.54         20.59GVEV083G96
     K23V02L 1C2023 11 05.38012203 41 14.345+10 45 00.14         20.66GVEV083G96
     K23V02L 1C2023 11 05.38533603 41 16.710+10 45 23.11         20.77GVEV083G96
     K23V02L 1C2023 11 05.39052403 41 19.064+10 45 45.47         20.32GVEV083G96
     K23V02L KC2023 11 05.44950403 41 46.705+10 50 00.17         20.88GVEV083I52
     K23V02L KC2023 11 05.45051903 41 47.216+10 50 04.27         21.09GVEV083I52
     K23V02L KC2023 11 05.45153603 41 47.677+10 50 08.74         20.99GVEV083I52
     K23V02L KC2023 11 05.45253403 41 48.203+10 50 12.98         20.40GVEV083I52
     K23V02L KC2023 11 06.06789603 48 39.74 +11 40 02.5          20.3 GVEV083L01
     K23V02L KC2023 11 06.07041903 48 41.24 +11 40 15.9          20.4 GVEV083L01
     K23V02L KC2023 11 06.07294203 48 42.81 +11 40 28.7          20.4 GVEV083L01
     K23V02L KC2023 11 06.11521 03 49 10.67 +11 44 10.7          20.5 GVEV083204
     K23V02L KC2023 11 06.12456 03 49 16.62 +11 44 59.9                VEV083204
     K23V02L KC2023 11 06.13391 03 49 22.61 +11 45 49.1                VEV083204
     K23V02L KB2023 11 07.19433 04 05 47.23 +13 43 03.7          19.8 GVEV083734
     K23V02L KB2023 11 07.20210 04 05 54.65 +13 44 07.7          19.8 GVEV083734
     K23V02L KB2023 11 07.20987 04 06 02.03 +13 45 11.4          19.8 GVEV083734
Observer details:
204 Schiaparelli Observatory.  Observers L. Buzzi, G. Galli.  0.84-m f/3.5
    reflector + CCD.
734 Farpoint Observatory, Eskridge.  Observer .
G96 Mt. Lemmon Survey.  Observer J. B. Fazekas.  Measurers E. C. Beshore, D.
    Fay, J. B. Fazekas, D. C. Fuls, A. R. Gibbs, A. D. Grauer, H. Groeller, J.
    K. Hogan, R. A. Kowalski, S. M. Larson, G. J. Leonard, D. Rankin, R. L.
    Seaman, F. C. Shelly, K. W. Wierzchos.  1.5-m reflector + 10K CCD.
I52 Steward Observatory, Mt. Lemmon Station.  Observer R. A. Kowalski.
    Measurers E. C. Beshore, D. Fay, J. B. Fazekas, D. C. Fuls, A. R. Gibbs,
    A. D. Grauer, H. Groeller, J. K. Hogan, R. A. Kowalski, S. M. Larson, G.
    J. Leonard, D. Rankin, R. L. Seaman, F. C. Shelly, K. W. Wierzchos.  1.0-m
    prime focus + CCD.
L01 Visnjan Observatory, Tican.  Observer K. Korlevic.  1.0-m f/2.9 reflector
    + CCD.
Orbital elements:
2023 VL2                                                 Earth MOID = 0.0015 AU
Epoch 2023 Sept. 13.0 TT = JDT 2460200.5                MPC                     
M 266.88393              (2000.0)            P               Q                  
n   0.81343876     Peri.   68.03659     -0.42705736     -0.90370399             
a   1.1365437      Node    47.28203     +0.81344499     -0.39877774             
e   0.2222376      Incl.    2.39307     +0.39487879     -0.15586983             
P   1.21           H   28.29          G   0.15           U   7                  
Residuals in seconds of arc
231105 G96  0.0   0.0     231105 I52  0.4-  0.1-    231106 204  0.3+  0.1-
231105 G96  0.1-  0.1-    231105 I52  0.2+  0.1-    231106 204  0.1+  0.1-
231105 G96  0.1+  0.2+    231106 L01  0.1+  0.0     231107 734  0.1+  0.1-
231105 G96  0.2+  0.0     231106 L01  0.4-  0.1+    231107 734  0.1+  0.1+
231105 I52  0.1-  0.1+    231106 L01  0.1+  0.3-    231107 734  0.2-  0.1+
231105 I52  0.2+  0.2-    231106 204  0.2+  0.1-
Ephemeris:
2023 VL2                 a,e,i = 1.14, 0.22, 2                   q = 0.8840
Date    TT    R. A. (2000) Decl.     Delta      r    Elong.  Phase     V
2023 10 08    02 41 49.8 +04 46 26   0.1301  1.1166   152.7    24.3    25.2
...
2023 10 23    02 56 30.8 +05 22 11   0.06959 1.0616   162.1    16.8    23.5
...
2023 10 31    03 11 56.3 +07 02 43   0.04078 1.0324   165.2    14.2    22.2
...
2023 11 06    03 47 59.5 +11 37 56   0.02046 1.0111   163.5    16.2    20.7
2023 11 07    04 02 04.6 +13 22 31   0.01726 1.0076   161.4    18.2    20.4
2023 11 08    04 22 41.8 +15 48 26   0.01417 1.0041   157.8    21.9    20.1
...
2023 11 14    12 18 59.1 +16 29 55   0.01057 0.9836    55.3   124.2    23.6
...
2023 11 22    14 06 07.4 +02 26 19   0.03611 0.9579    33.5   145.4    28.6
...
2023 12 07    14 35 02.9 -02 13 41   0.08994 0.9170    38.9   137.6    29.4
A. U. Tomatic                (C) Copyright 2023 MPC           M.P.E.C. 2023-V83
    
    
More information about the Iaude
mailing list